logo
Search for airport 
image banner adimage banner adimage banner ad
image banner ad

VT55 - Brandon

Located in Randolph, United States

ICAO - VT55, IATA -

Data provided by Airmate  

General information

Coordinates: N43°54'4" W72°34'58"
Elevation is 710 feet MSL.
Magnetic variation is -16° East
View others Airports in Vermont

Operational data

Special qualification required
Current time UTC:
Current local time:
Weather at : KMPV - Edward F Knapp State ( 34 km )
METAR: KMPV 231951Z AUTO 00000KT 4SM RA FEW027 BKN047 OVC070 22/18 A3012 RMK AO2 RAB41 SLP195 P0001 T02220183
TAF: KMPV 231739Z 2318/2418 00000KT P6SM VCSH SCT015 BKN027 OVC070 FM240000 00000KT P6SM FEW035 SCT080 FM240900 VRB04KT P6SM SCT001 BKN010 FM241300 16007KT P6SM SCT018 BKN020 FM241700 15008KT P6SM VCSH SCT022 BKN200
View NOTAMs / SUP AIP / TFR affecting this airport [VIEW]
Communications frequencies: [VIEW]

Runways:

RWY identifierQFULength (ft)Width (ft)SurfaceLDA (ft)
17130025GRASS
35130025GRASS

Airport contact information

Address: Randolph United States

Satellite view of VT55